Time,TemperatureF,DewpointF,PressureIn,WindDirection,WindDirectionDegrees,WindSpeedMPH,WindSpeedGustMPH,Humidity,HourlyPrecipIn,Conditions,Clouds,dailyrainin,SoftwareType,DateUTC
2013-09-17 01:00:00,48.0,36.0,-100.00,North,-999,-999.0,-999.0,64,-99.99,,,0.01,,2013-09-17 08:00:00,
2013-09-17 01:52:00,48.0,36.0,-100.00,North,-999,-999.0,-999.0,64,-99.99,,,0.01,,2013-09-17 08:52:00,
2013-09-17 03:00:00,47.0,38.0,-100.00,SW,214,2.0,5.0,72,-99.99,,,0.01,,2013-09-17 10:00:00,
2013-09-17 03:53:00,47.0,38.0,-100.00,SW,214,2.0,5.0,72,-99.99,,,0.01,,2013-09-17 10:53:00,
2013-09-17 04:00:00,45.0,38.0,-100.00,South,186,2.0,4.0,76,-99.99,,,0.01,,2013-09-17 11:00:00,
2013-09-17 04:52:00,45.0,38.0,-100.00,South,186,2.0,4.0,76,-99.99,,,0.01,,2013-09-17 11:52:00,
2013-09-17 05:00:00,45.0,39.0,-100.00,SSE,162,2.0,4.0,79,-99.99,,,0.01,,2013-09-17 12:00:00,
2013-09-17 05:52:00,45.0,39.0,-100.00,SSE,162,2.0,4.0,79,-99.99,,,0.01,,2013-09-17 12:52:00,
2013-09-17 07:00:00,45.0,38.0,-100.00,NW,307,1.0,3.0,76,-99.99,,,0.00,,2013-09-17 14:00:00,
2013-09-17 07:52:00,45.0,38.0,-100.00,NW,307,1.0,3.0,76,-99.99,,,0.00,,2013-09-17 14:52:00,
2013-09-17 08:00:00,47.0,39.0,-100.00,NW,308,0.0,1.0,74,-99.99,,,0.00,,2013-09-17 15:00:00,
2013-09-17 08:53:00,47.0,39.0,-100.00,NW,308,0.0,1.0,74,-99.99,,,0.00,,2013-09-17 15:53:00,
2013-09-17 09:00:00,48.0,41.0,-100.00,ENE,62,0.0,2.0,75,-99.99,,,0.00,,2013-09-17 16:00:00,
2013-09-17 09:54:00,48.0,41.0,-100.00,ENE,62,0.0,2.0,75,-99.99,,,0.00,,2013-09-17 16:54:00,
2013-09-17 10:00:00,49.0,42.0,-100.00,NNW,336,1.0,4.0,74,-99.99,,,0.00,,2013-09-17 17:00:00,
2013-09-17 10:53:00,49.0,42.0,-100.00,NNW,336,1.0,4.0,74,-99.99,,,0.00,,2013-09-17 17:53:00,
2013-09-17 15:00:00,49.0,43.0,-100.00,NW,305,0.0,2.0,82,-99.99,,,0.02,,2013-09-17 22:00:00,
2013-09-17 15:53:00,49.0,43.0,-100.00,NW,305,0.0,2.0,82,-99.99,,,0.02,,2013-09-17 22:53:00,
2013-09-17 16:00:00,49.0,43.0,-100.00,SSW,203,1.0,2.0,82,-99.99,,,0.02,,2013-09-17 23:00:00,
2013-09-17 16:52:00,49.0,43.0,-100.00,SSW,203,1.0,2.0,82,-99.99,,,0.02,,2013-09-17 23:52:00,
2013-09-17 18:00:00,48.0,42.0,-100.00,West,262,1.0,3.0,82,-99.99,,,0.02,,2013-09-18 01:00:00,
2013-09-17 18:52:00,48.0,42.0,-100.00,West,262,1.0,3.0,82,-99.99,,,0.02,,2013-09-18 01:52:00,
2013-09-17 19:00:00,45.0,40.0,-100.00,SE,138,2.0,4.0,82,-99.99,,,0.01,,2013-09-18 02:00:00,
2013-09-17 19:52:00,45.0,40.0,-100.00,SE,138,2.0,4.0,82,-99.99,,,0.01,,2013-09-18 02:52:00,
2013-09-17 20:00:00,44.0,40.0,-100.00,SSW,202,3.0,4.0,85,-99.99,,,0.01,,2013-09-18 03:00:00,
2013-09-17 20:55:00,44.0,40.0,-100.00,SSW,202,3.0,4.0,85,-99.99,,,0.01,,2013-09-18 03:55:00,
2013-09-17 21:00:00,43.0,36.0,-100.00,South,173,3.0,5.0,76,-99.99,,,0.00,,2013-09-18 04:00:00,
2013-09-17 21:54:00,43.0,36.0,-100.00,South,173,3.0,5.0,76,-99.99,,,0.00,,2013-09-18 04:54:00,
2013-09-17 22:00:00,43.0,35.0,-100.00,South,189,4.0,7.0,72,-99.99,,,0.01,,2013-09-18 05:00:00,
2013-09-17 22:53:00,43.0,35.0,-100.00,South,189,4.0,7.0,72,-99.99,,,0.01,,2013-09-18 05:53:00,
2013-09-17 23:00:00,41.0,35.0,-100.00,WSW,240,5.0,7.0,76,-99.99,,,0.00,,2013-09-18 06:00:00,
2013-09-17 23:52:00,41.0,35.0,-100.00,WSW,240,5.0,7.0,76,-99.99,,,0.00,,2013-09-18 06:52:00,